#timestamp,LO_Frequency,Hit,StdDev 
1627056015.3,286047014.8,N
1627056035.1,286047014.5,N
1627056055.8,286047016.7,N
1627056075.7,286047016.5,N
1627056095.5,286047018.6,N
1627056115.4,286047019.9,Y
1627056135.2,286047009.5,P
1627056155.0,286047011.1,P
1627056155.9,286047011.1,P
1627056175.8,286047014.0,Y
1627056195.6,286047002.7,P
1627056215.5,286047001.3,N
1627056235.3,286047001.3,N
1627056255.1,286047001.8,N
1627056275.9,286047003.5,N
1627056295.7,286047002.9,N
1627056315.6,286047003.3,N
1627056335.4,286047003.5,N
1627056355.2,286047003.2,N
1627056375.1,286047003.0,N
1627056376.0,286047003.0,N
1627056395.8,286047003.1,N
1627056415.7,286047003.5,N
1627056435.5,286047005.5,N
1627056455.3,286047007.6,Y
1627056475.2,286047004.2,P
1627056495.0,286047004.0,P
1627056495.9,286047004.0,P
1627056515.8,286047003.9,Y
1627056535.6,286047002.8,P
1627056555.4,286047003.5,P
1627056575.3,286047002.9,P
1627056595.1,286047005.8,Y
1627056615.9,286047000.9,P
1627056635.7,286047001.1,N
1627056655.5,286046999.1,N
1627056675.4,286046998.1,N
1627056695.2,286047001.0,N
1627056715.0,286046999.6,N
1627056715.9,286046999.6,N
1627056735.8,286046995.6,N
1627056755.6,286046996.1,N
1627056775.5,286046995.2,N
1627056795.3,286046994.9,N
1627056815.1,286046998.8,N
1627056835.9,286046999.9,N
1627056855.7,286047000.5,N
1627056875.6,286046999.8,N
1627056895.4,286047001.9,N
1627056915.2,286047002.7,N
1627056935.1,286046999.9,N
1627056936.0,286046999.9,N
1627056955.8,286047001.1,N
1627056975.6,286046999.3,N
1627056995.5,286046997.9,N
1627057015.3,286046997.6,N
1627057035.2,286046997.5,N
1627057055.9,286046993.3,Y
1627057075.7,286046991.7,P
1627057095.6,286046990.2,N
1627057115.4,286046988.7,N
1627057135.2,286046990.0,N
1627057155.1,286046988.8,N
1627057156.0,286046988.8,Y
1627057175.8,286047000.3,P
1627057195.7,286047000.2,N
1627057215.5,286047000.1,N
1627057235.3,286046999.8,N
1627057255.2,286047004.4,N
1627057275.0,286047003.5,N
1627057275.9,286047003.5,N
1627057295.8,286047001.8,N
1627057315.6,286047003.7,N
1627057335.4,286047004.7,N
1627057355.3,286047005.5,N
1627057375.1,286047004.0,N
1627057376.0,286047004.0,N
1627057395.8,286047003.0,N
1627057415.7,286047005.0,N
1627057435.5,286047007.5,N
1627057455.4,286047008.5,N
1627057475.2,286047006.1,N
1627057495.0,286047007.3,N
1627057495.9,286047007.3,N
1627057515.8,286047006.4,N
1627057535.6,286047008.5,N
1627057555.5,286047010.3,N
1627057575.3,286047011.9,Y
1627057595.1,286047006.3,P
1627057615.9,286047007.3,P
1627057635.7,286047005.3,P
1627057655.5,286047005.3,Y
1627057675.4,286047000.0,P
1627057695.2,286046998.6,N
1627057715.1,286046998.1,N
1627057716.0,286046998.1,N
1627057735.8,286046999.0,N
1627057755.6,286046998.6,N
1627057775.5,286047001.2,N
1627057795.3,286046997.0,N
1627057815.1,286046997.5,N
1627057835.9,286046995.9,N
1627057855.7,286046994.5,N
1627057875.6,286046994.5,N
1627057895.4,286046995.1,N
1627057915.2,286046994.9,N
1627057935.1,286046997.4,N
1627057936.0,286046997.4,N
1627057955.8,286046999.4,N
1627057975.6,286047001.1,N
1627057995.5,286046998.1,N
1627058015.3,286046998.8,N
1627058035.2,286046996.8,N
1627058055.9,286046998.3,N
1627058075.7,286046998.7,N
1627058095.6,286046996.7,N
1627058115.4,286046996.1,N
1627058135.2,286046994.3,N
1627058155.1,286046992.4,Y
1627058156.0,286046992.4,P
1627058175.8,286046996.3,N
1627058195.7,286046994.9,N
1627058215.5,286046997.0,N
1627058235.3,286047000.5,N
1627058255.2,286046998.8,N
1627058275.9,286046998.4,N
1627058295.7,286047001.0,N
1627058315.6,286046998.8,N
1627058335.4,286047000.2,N
1627058355.2,286047002.1,N
1627058375.1,286047000.0,N
1627058376.0,286047000.0,N
1627058395.8,286047002.4,N
1627058415.7,286047002.2,N
1627058435.5,286047004.2,N
1627058455.3,286047005.6,N
1627058475.2,286047004.9,N
1627058495.0,286047002.9,N
1627058495.9,286047002.9,N
1627058515.8,286047005.4,N
1627058535.6,286047006.0,N
1627058555.4,286047001.7,N
1627058575.3,286046999.9,N
1627058595.1,286047001.2,N
1627058615.8,286047000.9,N
1627058635.7,286046996.5,N
1627058655.5,286046997.2,N
1627058675.3,286046995.7,N
1627058695.2,286046995.7,N
1627058715.0,286046997.1,N
1627058715.9,286046997.1,N
1627058735.8,286046996.6,N
1627058755.6,286046997.7,N
1627058775.4,286046998.6,N
1627058795.3,286047002.4,N
1627058815.1,286047003.8,N
1627058835.8,286047005.2,N
1627058855.7,286047004.6,N
1627058875.5,286047007.5,N
1627058895.4,286047006.7,N
1627058915.2,286047007.4,N
1627058935.0,286047006.7,N
1627058935.9,286047006.7,N
1627058955.8,286047009.1,N
1627058975.6,286047006.7,N
1627058995.4,286047003.5,N
1627059015.3,286047001.0,N
1627059035.1,286046998.1,N
1627059055.9,286047002.3,N
1627059075.7,286047003.8,N
1627059095.5,286047004.8,N
1627059115.4,286047007.5,N
1627059135.2,286047006.6,N
1627059155.1,286047008.7,N
1627059156.0,286047008.7,N
1627059175.8,286047006.3,N
1627059195.6,286047006.5,N
1627059215.5,286047006.5,N
1627059235.3,286047006.9,N
1627059255.1,286047007.1,N
1627059275.9,286047007.6,N
1627059295.7,286047007.1,N
1627059315.6,286047007.2,N
1627059335.4,286047005.0,N
1627059355.2,286047007.2,N
1627059375.1,286047007.3,Y
1627059376.0,286047007.3,P
1627059395.8,286047000.5,N
1627059415.6,286047001.5,N
1627059435.5,286047001.8,N
1627059455.3,286047001.8,N
1627059475.2,286047003.0,N
1627059495.9,286047003.4,N
1627059515.7,286047005.3,N
1627059535.6,286047005.3,N
1627059555.4,286047005.4,N
1627059575.2,286047004.6,N
1627059595.1,286047007.6,Y
1627059596.0,286047007.6,P
